Location: Dogstar Observatory
(35.3981°N, 83.1078°W)
Time: 11:45:52
(UTC-05:00)

X-37B - Visible Passes

Search period start: 03 December 2021 00:00
Search period end: 13 December 2021 00:00
Orbit: 330 x 341 km, 45.0° (Epoch: 20 November)

Date Brightness Start Highest point End Pass type
(mag) Time Alt. Az. Time Alt. Az. Time Alt. Az.
03 Dec 2.3 18:33:21 10° S 18:35:19 17° SE 18:35:19 17° SE visible
04 Dec 0.9 18:52:48 10° SW 18:55:10 48° S 18:55:10 48° S visible
05 Dec 2.4 19:13:18 10° WSW 19:14:56 28° W 19:14:56 28° W visible
06 Dec 0.6 17:58:14 10° SW 18:01:01 55° SE 18:03:24 13° ENE visible
06 Dec 3.8 19:34:22 10° WNW 19:34:38 11° WNW 19:34:38 11° WNW visible
07 Dec 1.0 18:18:42 10° WSW 18:21:28 45° NNW 18:23:02 21° NE visible
08 Dec 2.1 18:39:47 10° WNW 18:42:06 21° NNW 18:42:38 20° N visible
09 Dec 3.0 19:01:12 10° NW 19:02:11 13° NNW 19:02:11 13° NNW visible
10 Dec 2.2 17:45:12 10° WNW 17:47:31 22° NNW 17:49:50 10° NE visible
11 Dec 2.7 18:06:37 10° NW 18:08:17 14° N 18:09:57 10° NNE visible
12 Dec 2.8 18:27:54 10° NNW 18:29:09 12° N 18:29:35 12° N visible
